Content
SEND FEEDBACK

Daily
Averages
Monthly
Summary
United States of America

BURLINGTON, NORTH DAKOTA


Home > North America > United States > North Dakota
Elevation: 1679 feet     Latitude: 48 16N     Longitude: 101 17W

WEATHER
 
SELECT A DAY
Number of Records: 200,213;   Date Range: 1/1/95 - 9/16/14
 
SHARE

PRINT THIS DATA

[ ← Previous Day ]
WEATHER ALMANAC - DECEMBER 26, 2013
[ Next Day → ]
[ °C ]   °F
Weather ElementAverageHighLow
Temperature27.3 °F33.1 °F (2:54 pm)21.9 °F (1:54 am)
Dewpoint23 °F26.1 °F (8:44 am)19 °F (8:54 pm)
Humidity84.2 %93 % (2:51 am)72 % (11:54 pm)
Barometer29.95 in30.06 in (10:54 am)29.86 in (11:54 pm)
Wind Speed10.1 mph20.7 mph (8:44 am)
Weather ElementAverage
Visibility7.5 mi
Wind DirectionSSW (215.8 °)

Weather ElementTotal
Precipitation0.03 in
Heating Degree Days37.5 (Base 65)
Averaged from 38 records on December 26, 2013
WEATHER CONDITIONS BREAKOUT
WIND DIRECTION BREAKOUT
WEATHER BY HOUR - DECEMBER 26, 2013
[ °C ]   °F
Local TimeTemperatureDewpointHumidityBarometerVisibilityWind DirectionWind SpeedGust SpeedPrecipitationEventsConditions
1:54 AM21.9 °F19.9 °F92 %29.99 in8.0 miSouth (170°)6.9 mphOvercast
2:26 AM23.0 °F19.9 °F88 %29.89 in2.0 miSSE (150°)4.6 mph0.00 inSnowLight Snow
2:36 AM23.0 °F19.9 °F88 %29.89 in2.0 miSSE (150°)4.6 mph0.00 inSnowLight Snow
2:43 AM23.0 °F21.0 °F92 %29.89 in1.5 miSSE (160°)5.8 mph0.00 inSnowLight Snow
2:51 AM23.0 °F21.2 °F93 %29.90 in2.0 miSSE (150°)4.6 mph0.00 inSnowLight Snow
2:54 AM23.0 °F21.0 °F92 %29.98 in2.5 miSSE (150°)4.6 mph0.00 inSnowLight Snow
3:08 AM23.0 °F21.0 °F92 %29.88 in4.0 miESE (120°)5.8 mph0.00 inSnowLight Snow
3:54 AM24.1 °F21.0 °F88 %29.96 in5.0 miSSE (150°)4.6 mph0.00 inSnowLight Snow
4:13 AM24.1 °F21.9 °F91 %29.88 in2.0 miSouth (170°)4.6 mph0.00 inSnowLight Snow
4:22 AM24.1 °F21.9 °F91 %29.87 in1.5 miSSE (160°)5.8 mph0.00 inSnowLight Snow
4:40 AM25.0 °F23.0 °F92 %29.87 in3.0 miSouth (190°)5.8 mph0.00 inSnowLight Snow
4:54 AM26.1 °F23.0 °F88 %29.95 in6.0 miSSW (210°)8.1 mph0.00 inOvercast
5:18 AM26.1 °F23.0 °F88 %29.88 in2.5 miSW (220°)9.2 mph0.01 inSnowLight Snow
5:29 AM26.1 °F24.1 °F92 %29.88 in5.0 miSW (230°)6.9 mph0.01 inOvercast
5:54 AM27.0 °F24.1 °F89 %29.94 in10.0 miSW (220°)6.9 mph0.01 inOvercast
6:18 AM25.0 °F21.9 °F88 %29.87 in10.0 miSW (230°)5.8 mphScattered Clouds
6:43 AM27.0 °F24.1 °F89 %29.87 in10.0 miWSW (240°)6.9 mphMostly Cloudy
6:54 AM28.0 °F24.1 °F85 %29.95 in10.0 miWSW (240°)9.2 mphOvercast
7:54 AM30.9 °F24.1 °F76 %29.97 in10.0 miWest (260°)15.0 mphOvercast
8:44 AM30.9 °F26.1 °F82 %29.92 in9.0 miNW (310°)20.7 mph0.00 inSnowLight Snow
8:54 AM30.9 °F26.1 °F82 %30.00 in10.0 miNW (310°)18.4 mph0.00 inOvercast
9:54 AM30.9 °F26.1 °F82 %30.04 in10.0 miWNW (300°)17.3 mphOvercast
10:29 AM30.0 °F26.1 °F85 %29.97 in10.0 miWNW (290°)18.4 mphOvercast
10:54 AM30.0 °F25.0 °F82 %30.06 in10.0 miNW (310°)18.4 mphOvercast
11:54 AM30.9 °F25.0 °F79 %30.06 in10.0 miWNW (300°)19.6 mphOvercast
12:54 PM30.9 °F25.0 °F79 %30.06 in10.0 miWNW (300°)15.0 mphOvercast
1:54 PM32.0 °F26.1 °F79 %30.06 in10.0 miWest (270°)15.0 mphOvercast
2:54 PM33.1 °F26.1 °F75 %30.04 in10.0 miWSW (250°)10.4 mphOvercast
3:37 PM33.1 °F26.1 °F75 %29.97 in10.0 miWest (260°)9.2 mphScattered Clouds
3:54 PM32.0 °F26.1 °F79 %30.04 in10.0 miWSW (250°)5.8 mphClear
4:54 PM27.0 °F21.9 °F81 %30.04 in10.0 miSSE (160°)6.9 mphClear
5:54 PM28.0 °F23.0 °F81 %30.02 in10.0 miSouth (180°)8.1 mphClear
6:54 PM26.1 °F21.0 °F81 %30.01 in10.0 miSouth (190°)8.1 mphClear
7:54 PM28.0 °F21.9 °F78 %29.99 in10.0 miSouth (190°)9.2 mphClear
8:54 PM24.1 °F19.0 °F81 %29.97 in10.0 miSSE (150°)5.8 mphClear
9:54 PM27.0 °F21.0 °F78 %29.91 in10.0 miSSW (200°)15.0 mphClear
10:54 PM28.0 °F21.0 °F75 %29.90 in10.0 miSSW (200°)18.4 mphClear
11:54 PM30.0 °F21.9 °F72 %29.86 in10.0 miSSW (210°)18.4 mphClear
Hourly data recorded from KMOT, located miles away from Burlington, North Dakota







STORIES FROM OUR PARTNERS